Location: Newark
(7.0858°N, 171.3717°E)
Time: 20:04:14
(UTC+00:00)

Tiros 1 - Pass Details

Date: 04 December 2020
Orbit: 630 x 663 km, 48.4° (Epoch: 18 January)

Event Time Altitude Azimuth Distance (km) Brightness Sun altitude
Rises 11:09:38 0° 298° (WNW) 2,938 - -66.3°
Reaches altitude 10° 11:12:23 10° 283° (WNW) 2,024 - -66.8°
Maximum altitude 11:16:00 22° 232° (SW) 1,380 - -67.5°
Drops below altitude 10° 11:19:35 10° 181° (S) 2,011 - -68.1°
Sets 11:22:20 0° 166° (SSE) 2,914 - -68.6°
